{"data":{"norad_id":58364,"intl_designator":"2023-177P","name":"STARLINK-30904","alt_names":[],"object_type":"PAYLOAD","status":"ACTIVE","operator":null,"country":"US","launch_date":"2023-11-18","launch_site_code":"AFETR","launch_vehicle":null,"mission":null,"orbit_class":"UNKNOWN","rcs_meters":null,"size_class":null,"mass_kg":null,"dimensions":null,"purposes":["comms"],"wikipedia_slug":null,"has_3d_model":false,"image_url":null,"decayed_at":null,"tle_current":{"epoch":"2026-05-24T18:25:15.230496Z","epoch_age_seconds":98409,"freshness":"FRESH","line1":"1 58364U 23177P   26144.76753739  .00016599  00000+0  10655-2 0  9998","line2":"2 58364  43.0004 293.6298 0008426 296.3522  63.6457 15.08200247139718","mean_motion":15.08200247,"eccentricity":0.0008426,"inclination_deg":43.0004,"raan_deg":293.6298,"arg_perigee_deg":296.3522,"mean_anomaly_deg":63.6457,"bstar":0.0010655,"rev_number":13971,"period_min":95.478037672009,"perigee_km":535.8688948698,"apogee_km":547.53020342242,"semimajor_km":6919.8365491461,"source":"CELESTRAK","updated_at":"2026-05-25T13:38:18.609080Z"}}}